Tracking 25734 objects as of 28-May-2022
HD Live streaming from Space Station
objects crossing your sky now

YUNHAI 1-02 DEB

Track YUNHAI 1-02 DEB now!
10-day predictions


NORAD ID: 48203
Int'l Code: 2019-063X
Perigee: 547.9 km
Apogee: 890.1 km
Inclination: 98.7 °
Period: 99.0 minutes
Semi major axis: 7090 km
RCS: Unknown
Launch date: September 25, 2019
Source: People's Republic of China (PRC)
Launch site: Jiuquan Satellite Launch Center, China (JSC)

Note: This is SATELLITE DEBRIS
aabbcc
Your satellite tracking list
Your tracking list is empty




NASA's NSSDC Master Catalog

Two Line Element Set (TLE):
1 48203U 19063X   22144.96830674  .00180537  00000-0  28278-1 0  9994
2 48203  98.6802 159.8458 0241320 274.3269  83.0390 14.54217772 60242
Source of the keplerian elements: AFSPC